Location: Newark
(0.5300°S, 127.4800°E)
Time: 09:29:25
(UTC+00:00)

Vanguard 3 - Pass Details

Date: 25 September 2019
Orbit: 508 x 3262 km, 33.3° (Epoch: 14 October)

Event Time Altitude Azimuth Distance (km) Brightness Sun altitude
Rises 21:30:51 0° 286° (WNW) 4,403 10.3 2.3°
Reaches altitude 10° 21:34:36 10° 303° (WNW) 3,862 10.1 3.2°
Maximum altitude 21:41:49 20° 346° (NNW) 3,875 10.5 5.0°
Drops below altitude 10° 21:51:43 10° 26° (NNE) 5,461 11.8 7.5°
Sets 21:58:52 0° 41° (NE) 6,899 12.5 9.3°
